Overview Statistics Trail Chart Weather Telemetry Raw packets
 

This is the latest recevied weather packets stored in our database for station/object W8RSN-13. If no packets are shown the sender has not sent any weather packets the latest 10 day(s).

<< 50 51 52 53 54 55 56 >>
Time Temp. Humidity Pressure Rain* Wind** Luminosity Snow
1788341670 16.11° C 64% 1018.2 hPa - - - -
1788341068 16.67° C 60% 1018.3 hPa - - - -
1788340768 16.67° C 63% 1018.1 hPa - - - -
1788340467 16.67° C 65% 1018.3 hPa - - - -
1788340166 16.67° C 64% 1018.2 hPa - - - -
1788339865 16.67° C 65% 1018.2 hPa - - - -
1788339564 16.67° C 67% 1018.2 hPa - - - -
1788339263 16.67° C 68% 1018.3 hPa - - - -
1788338963 16.11° C 70% 1018.3 hPa - - - -
1788338662 16.11° C 74% 1018.4 hPa - - - -
1788338361 16.67° C 76% 1018.4 hPa - - - -
1788338059 16.67° C 74% 1018.4 hPa - - - -
1788337759 16.67° C 73% 1018.4 hPa - - - -
1788337458 17.22° C 72% 1018.5 hPa - - - -
1788337157 17.22° C 73% 1018.3 hPa - - - -
1788336856 17.22° C 73% 1018.3 hPa - - - -
1788336575 17.22° C 73% 1018.4 hPa - - - -
1788336275 17.22° C 73% 1018.5 hPa - - - -
1788335974 17.22° C 72% 1018.2 hPa - - - -
1788335673 17.22° C 72% 1018.3 hPa - - - -
1788335372 17.22° C 72% 1018 hPa - - - -
1788335071 17.22° C 72% 1018.2 hPa - - - -
1788334770 17.78° C 71% 1017.9 hPa - - - -
1788334469 17.78° C 71% 1018.2 hPa - - - -
1788334168 18.33° C 71% 1017.9 hPa - - - -

* Rain since midnight (hover to see other rain measurements)
** Current wind speed in m/s (hover to see current wind gust speed)